False Pass, AK

2:11 AM HDT on June 27, 2017 (GMT -0900)
False Pass

Weather History for PAKF - March, 2013

Change the Weather History Date:

Monday, March 18, 2013

  Actual Average (PACD) Record (PACD)
Temperature  
Mean Temperature 29 °F -  
Max Temperature 28 °F 35 °F 45 °F (2005)
Min Temperature 26 °F 25 °F 4 °F (1959)
Degree Days  
Heating Degree Days 36    
Moisture  
Dew Point 24 °F    
Average Humidity 76    
Maximum Humidity 82    
Minimum Humidity 69    
Precipitation  
Precipitation 0.00 in - - ()
Sea Level Pressure  
Sea Level Pressure 30.64 in    
Wind  
Wind Speed 8 mph (WNW)    
Max Wind Speed 17 mph    
Max Gust Speed 24 mph    
Visibility 10 miles    
Events      
Averages and records for this station are not official NWS values.
T = Trace of Precipitation, MM = Missing Value Source: NWS Daily Summary

Daily Weather History Graph

Daily Weather History Graph

Search for Another Location

Airport or City:

Trip Planner

Search our weather history database for the weather conditions in past years. The results will help you decide how hot, cold, wet, or windy it might be!

Date:

Astronomy

Mar. 18, 2013 Rise Set
Actual Time 7:59 AM HDT 8:04 PM HDT
Civil Twilight 7:23 AM HDT 8:40 PM HDT
Nautical Twilight 6:41 AM HDT 9:23 PM HDT
Astronomical Twilight 5:56 AM HDT 10:08 PM HDT
Moon 11:13 AM HDT (3/18) 3:09 AM HDT (3/18)
Length of Visible Light 13h 16m
Length of Day
12h 04m
Waxing Crescent, 42% of the Moon is Illuminated
Mar 18
Waxing Crescent
Mar 19
First Quarter
Mar 27
Full
Apr 2
Last Quarter
Apr 10
New

Hourly Weather History & Observations

Time (HDT) Temp. Windchill Dew Point Humidity Pressure Visibility Wind Dir Wind Speed Gust Speed Precip Events Conditions
12:01 AM 30.9 °F - 24.1 °F 76% 30.65 in 10.0 mi Calm Calm - N/A   Clear
1:01 AM 28.0 °F 24.2 °F 21.9 °F 78% 30.64 in 10.0 mi SW 3.5 mph - N/A   Clear
2:01 AM 26.1 °F 17.6 °F 19.9 °F 78% 30.64 in 10.0 mi SSW 8.1 mph - N/A   Clear
3:01 AM 28.0 °F 24.2 °F 21.9 °F 78% 30.65 in 10.0 mi NW 3.5 mph - N/A   Clear
4:01 AM 28.9 °F 25.2 °F 24.1 °F 82% 30.65 in 10.0 mi Variable 3.5 mph - N/A   Clear
5:01 AM 32.0 °F 24.2 °F 25.0 °F 75% 30.64 in 10.0 mi West 9.2 mph 18.4 mph N/A   Clear
6:01 AM 30.9 °F 21.7 °F 24.1 °F 76% 30.65 in 10.0 mi West 11.5 mph - N/A   Clear
7:01 AM 30.9 °F 24.3 °F 23.0 °F 72% 30.64 in 10.0 mi Variable 6.9 mph - N/A   Clear
8:01 AM 30.9 °F 21.2 °F 24.1 °F 76% 30.64 in 10.0 mi West 12.7 mph - N/A   Clear
9:01 AM 30.0 °F 19.1 °F 25.0 °F 82% 30.65 in 10.0 mi WNW 15.0 mph - N/A   Clear
10:01 AM 30.0 °F 19.5 °F 24.1 °F 79% 30.66 in 10.0 mi WNW 13.8 mph - N/A   Clear
11:01 AM 30.9 °F 22.2 °F 24.1 °F 76% 30.67 in 10.0 mi WNW 10.4 mph 20.7 mph N/A   Partly Cloudy
12:01 PM 32.0 °F 23.0 °F 24.1 °F 73% 30.67 in 10.0 mi NNW 11.5 mph 20.7 mph N/A   Clear
1:01 PM 32.0 °F 22.5 °F 23.0 °F 69% 30.68 in 10.0 mi WNW 12.7 mph 18.4 mph N/A   Clear
2:01 PM 32.0 °F 22.5 °F 24.1 °F 73% 30.69 in 10.0 mi WNW 12.7 mph 20.7 mph N/A   Clear
2:30 PM 32.0 °F 22.5 °F 24.8 °F 75% 30.39 in 10.0 mi WNW 12.7 mph - N/A   Mostly Cloudy
2:41 PM 32.0 °F 21.2 °F 24.8 °F 75% 30.39 in 10.0 mi WNW 16.1 mph 24.2 mph N/A   Scattered Clouds
3:01 PM 32.0 °F 22.1 °F 23.0 °F 69% 30.69 in 10.0 mi West 13.8 mph 19.6 mph N/A   Partly Cloudy
3:32 PM 32.0 °F 22.1 °F 24.8 °F 75% 30.40 in 10.0 mi NW 13.8 mph 23.0 mph N/A   Mostly Cloudy
4:01 PM 30.9 °F 22.2 °F 24.1 °F 76% 30.69 in 10.0 mi West 10.4 mph - N/A   Overcast
5:01 PM 30.0 °F 21.1 °F 25.0 °F 82% 30.69 in 10.0 mi WNW 10.4 mph 24.2 mph N/A   Overcast
6:01 PM 30.0 °F 20.0 °F 24.1 °F 79% 30.69 in 10.0 mi WNW 12.7 mph 19.6 mph N/A   Overcast
7:01 PM 30.0 °F 20.5 °F 24.1 °F 79% 30.69 in 9.0 mi NW 11.5 mph 20.7 mph N/A   Overcast
8:01 PM 30.0 °F 20.5 °F 21.9 °F 72% 30.71 in 10.0 mi West 11.5 mph - N/A   Overcast
9:01 PM 28.9 °F 17.7 °F 23.0 °F 78% 30.72 in 10.0 mi NW 15.0 mph 20.7 mph N/A   Overcast
10:01 PM 28.0 °F 16.1 °F 23.0 °F 81% 30.73 in 10.0 mi WNW 16.1 mph 21.9 mph N/A   Overcast
11:01 PM 28.0 °F 15.7 °F 21.9 °F 78% 30.72 in 10.0 mi WNW 17.3 mph 23.0 mph N/A   Overcast